Location: Aciu?a
(46.2833°N, 22.4500°E)
Time: 13:39:12
(UTC+00:00)

Cosmos 2333 - Pass Details

Date: 25 October 2021
Orbit: 829 x 866 km, 70.9° (Epoch: 07 December)

Event Time Altitude Azimuth Distance (km) Brightness Sun altitude
Rises 17:35:26 0° 199° (SSW) 3,368 7.5 -22.9°
Reaches altitude 10° 17:37:51 10° 198° (SSW) 2,443 6.7 -23.3°
Maximum altitude 17:43:27 77° 114° (ESE) 870 4.0 -24.3°
Enters shadow 17:45:25 42° 37° (NE) 1,190 4.7 -24.6°
